Location: Costa Valle Imagna
(45.8000°N, 9.5000°E)
Time: 08:44:19
(UTC+00:00)

COSMO-SKYMED 1 - Pass Details

Date: 17 February 2020
Orbit: 621 x 623 km, 97.9° (Epoch: 31 March)

Event Time Altitude Azimuth Distance (km) Brightness Sun altitude
Rises 03:59:02 0° 148° (SSE) 2,893 6.3 -25.5°
Reaches altitude 10° 04:01:17 10° 142° (SE) 1,991 5.5 -25.2°
Maximum altitude 04:05:24 44° 71° (ENE) 865 3.7 -24.5°
Drops below altitude 10° 04:09:32 10° 359° (N) 2,006 5.2 -23.7°
Sets 04:11:48 0° 353° (N) 2,917 6.0 -23.3°
